Time,TemperatureF,DewpointF,PressureIn,WindDirection,WindDirectionDegrees,WindSpeedMPH,WindSpeedGustMPH,Humidity,HourlyPrecipIn,Conditions,Clouds,dailyrainin,SoftwareType,DateUTC
2013-04-03 00:02:00,46.0,28.0,30.30,SSE,155,0.0,3.0,49,0.00,,,0.00,,2013-04-03 05:02:00,
2013-04-03 00:12:00,46.0,28.0,30.30,SSE,155,0.0,3.0,49,0.00,,,0.00,,2013-04-03 05:12:00,
2013-04-03 00:22:00,46.0,29.0,30.32,SE,142,3.0,6.0,52,0.00,,,0.00,,2013-04-03 05:22:00,
2013-04-03 00:32:00,45.0,29.0,30.33,South,174,0.0,4.0,53,0.00,,,0.00,,2013-04-03 05:32:00,
2013-04-03 00:42:00,45.0,29.0,30.33,South,174,0.0,4.0,53,0.00,,,0.00,,2013-04-03 05:42:00,
2013-04-03 00:52:00,45.0,29.0,30.32,SSE,155,0.0,5.0,54,0.00,,,0.00,,2013-04-03 05:52:00,
2013-04-03 01:02:00,44.0,29.0,30.32,SW,214,0.0,1.0,55,0.00,,,0.00,,2013-04-03 06:02:00,
2013-04-03 01:12:00,44.0,29.0,30.32,SW,214,0.0,1.0,55,0.00,,,0.00,,2013-04-03 06:12:00,
2013-04-03 01:22:00,44.0,29.0,30.32,SW,214,0.0,1.0,55,0.00,,,0.00,,2013-04-03 06:22:00,
2013-04-03 01:32:00,44.0,30.0,30.32,SW,224,0.0,1.0,57,0.00,,,0.00,,2013-04-03 06:32:00,
2013-04-03 01:42:00,44.0,30.0,30.32,SW,224,0.0,1.0,57,0.00,,,0.00,,2013-04-03 06:42:00,
2013-04-03 01:52:00,44.0,30.0,30.32,SW,224,0.0,1.0,57,0.00,,,0.00,,2013-04-03 06:52:00,
2013-04-03 02:02:00,43.0,30.0,30.32,SW,235,0.0,1.0,60,0.00,,,0.00,,2013-04-03 07:02:00,
2013-04-03 02:12:00,43.0,30.0,30.32,SW,235,0.0,1.0,60,0.00,,,0.00,,2013-04-03 07:12:00,
2013-04-03 02:23:00,43.0,30.0,30.32,SW,235,0.0,1.0,60,0.00,,,0.00,,2013-04-03 07:23:00,
2013-04-03 02:32:00,42.0,30.0,30.34,SW,233,0.0,0.0,62,0.00,,,0.00,,2013-04-03 07:32:00,
2013-04-03 02:42:00,42.0,30.0,30.34,SW,233,0.0,0.0,62,0.00,,,0.00,,2013-04-03 07:42:00,
2013-04-03 02:53:00,42.0,30.0,30.34,SW,233,0.0,0.0,62,0.00,,,0.00,,2013-04-03 07:53:00,
2013-04-03 03:03:00,42.0,30.0,30.33,SW,231,0.0,1.0,62,0.00,,,0.00,,2013-04-03 08:03:00,
2013-04-03 03:12:00,42.0,30.0,30.33,SW,231,0.0,1.0,62,0.00,,,0.00,,2013-04-03 08:12:00,
2013-04-03 03:22:00,42.0,30.0,30.33,SW,231,0.0,0.0,62,0.00,,,0.00,,2013-04-03 08:22:00,
2013-04-03 03:32:00,41.0,29.0,30.33,SW,231,0.0,0.0,63,0.00,,,0.00,,2013-04-03 08:32:00,
2013-04-03 03:42:00,41.0,29.0,30.33,SW,231,0.0,0.0,63,0.00,,,0.00,,2013-04-03 08:42:00,
2013-04-03 03:52:00,41.0,30.0,30.32,SW,231,0.0,0.0,64,0.00,,,0.00,,2013-04-03 08:52:00,
2013-04-03 04:02:00,41.0,30.0,30.32,SW,231,0.0,0.0,64,0.00,,,0.00,,2013-04-03 09:02:00,
2013-04-03 04:12:00,41.0,30.0,30.32,SW,231,0.0,0.0,64,0.00,,,0.00,,2013-04-03 09:12:00,
2013-04-03 04:22:00,41.0,30.0,30.32,SW,231,0.0,0.0,64,0.00,,,0.00,,2013-04-03 09:22:00,
2013-04-03 04:33:00,41.0,31.0,30.32,SSE,156,0.0,0.0,66,0.00,,,0.00,,2013-04-03 09:33:00,
2013-04-03 04:43:00,41.0,31.0,30.32,SSE,156,0.0,0.0,66,0.00,,,0.00,,2013-04-03 09:43:00,
2013-04-03 04:53:00,41.0,31.0,30.33,SSE,156,0.0,0.0,67,0.00,,,0.00,,2013-04-03 09:53:00,
2013-04-03 05:03:00,41.0,32.0,30.33,SE,137,0.0,1.0,69,0.00,,,0.00,,2013-04-03 10:03:00,
2013-04-03 05:12:00,41.0,32.0,30.33,SE,137,0.0,1.0,69,0.00,,,0.00,,2013-04-03 10:12:00,
2013-04-03 05:22:00,41.0,31.0,30.33,ESE,121,0.0,4.0,68,0.00,,,0.00,,2013-04-03 10:22:00,
2013-04-03 05:33:00,41.0,31.0,30.33,ESE,121,0.0,4.0,68,0.00,,,0.00,,2013-04-03 10:33:00,
2013-04-03 05:42:00,41.0,31.0,30.33,ESE,121,0.0,4.0,68,0.00,,,0.00,,2013-04-03 10:42:00,
2013-04-03 05:53:00,41.0,31.0,30.32,ENE,65,1.0,3.0,68,0.00,,,0.00,,2013-04-03 10:53:00,
2013-04-03 06:02:00,40.0,31.0,30.32,ENE,63,1.0,3.0,70,0.00,,,0.00,,2013-04-03 11:02:00,
2013-04-03 06:12:00,40.0,31.0,30.32,ENE,63,1.0,3.0,70,0.00,,,0.00,,2013-04-03 11:12:00,
2013-04-03 06:22:00,40.0,32.0,30.32,ENE,63,1.0,3.0,73,0.00,,,0.00,,2013-04-03 11:22:00,
2013-04-03 06:32:00,39.0,31.0,30.32,NE,52,0.0,4.0,74,0.00,,,0.00,,2013-04-03 11:32:00,
2013-04-03 06:42:00,39.0,31.0,30.32,NE,52,0.0,4.0,74,0.00,,,0.00,,2013-04-03 11:42:00,
2013-04-03 06:53:00,39.0,31.0,30.32,NE,52,0.0,4.0,74,0.00,,,0.00,,2013-04-03 11:53:00,
2013-04-03 07:02:00,39.0,30.0,30.33,ENE,74,1.0,1.0,71,0.00,,,0.00,,2013-04-03 12:02:00,
2013-04-03 07:12:00,39.0,30.0,30.33,ENE,74,1.0,1.0,71,0.00,,,0.00,,2013-04-03 12:12:00,
2013-04-03 07:22:00,39.0,30.0,30.33,ENE,74,1.0,1.0,71,0.00,,,0.00,,2013-04-03 12:22:00,
2013-04-03 07:32:00,39.0,30.0,30.34,ENE,74,1.0,1.0,71,0.00,,,0.00,,2013-04-03 12:32:00,
2013-04-03 07:42:00,39.0,30.0,30.34,ENE,74,1.0,1.0,71,0.00,,,0.00,,2013-04-03 12:42:00,
2013-04-03 07:52:00,39.0,30.0,30.34,ENE,74,1.0,1.0,71,0.00,,,0.00,,2013-04-03 12:52:00,
2013-04-03 08:02:00,39.0,30.0,30.35,ENE,74,1.0,1.0,71,0.00,,,0.00,,2013-04-03 13:02:00,
2013-04-03 08:12:00,39.0,30.0,30.35,ENE,74,1.0,1.0,71,0.00,,,0.00,,2013-04-03 13:12:00,
2013-04-03 08:22:00,39.0,29.0,30.35,East,93,2.0,5.0,66,0.00,,,0.00,,2013-04-03 13:22:00,
2013-04-03 08:32:00,39.0,29.0,30.35,East,93,2.0,5.0,66,0.00,,,0.00,,2013-04-03 13:32:00,
2013-04-03 08:42:00,39.0,29.0,30.35,East,93,2.0,5.0,66,0.00,,,0.00,,2013-04-03 13:42:00,
2013-04-03 08:52:00,41.0,28.0,30.37,SE,142,0.0,6.0,60,0.00,,,0.00,,2013-04-03 13:52:00,
2013-04-03 09:02:00,42.0,27.0,30.37,ESE,104,4.0,7.0,55,0.00,,,0.00,,2013-04-03 14:02:00,
2013-04-03 09:12:00,42.0,27.0,30.37,ESE,104,4.0,7.0,55,0.00,,,0.00,,2013-04-03 14:12:00,
2013-04-03 09:22:00,42.0,27.0,30.37,SE,146,0.0,8.0,55,0.00,,,0.00,,2013-04-03 14:22:00,
2013-04-03 09:32:00,42.0,26.0,30.37,SE,131,2.0,8.0,52,0.00,,,0.00,,2013-04-03 14:32:00,
2013-04-03 09:42:00,42.0,26.0,30.37,SE,131,2.0,8.0,52,0.00,,,0.00,,2013-04-03 14:42:00,
2013-04-03 09:52:00,43.0,26.0,30.38,ESE,118,5.0,10.0,50,0.00,,,0.00,,2013-04-03 14:52:00,
2013-04-03 10:02:00,43.0,25.0,30.38,ESE,119,2.0,10.0,49,0.00,,,0.00,,2013-04-03 15:02:00,
2013-04-03 10:12:00,43.0,25.0,30.38,ESE,119,2.0,10.0,49,0.00,,,0.00,,2013-04-03 15:12:00,
2013-04-03 10:23:00,43.0,25.0,30.38,ESE,119,2.0,10.0,49,0.00,,,0.00,,2013-04-03 15:23:00,
2013-04-03 10:33:00,43.0,25.0,30.38,ESE,116,4.0,10.0,49,0.00,,,0.00,,2013-04-03 15:33:00,
2013-04-03 10:42:00,43.0,25.0,30.38,ESE,116,4.0,10.0,49,0.00,,,0.00,,2013-04-03 15:42:00,
2013-04-03 10:53:00,43.0,26.0,30.39,SE,126,2.0,8.0,50,0.00,,,0.00,,2013-04-03 15:53:00,
2013-04-03 11:03:00,43.0,26.0,30.39,SE,145,1.0,8.0,50,0.00,,,0.00,,2013-04-03 16:03:00,
2013-04-03 11:12:00,43.0,26.0,30.39,SE,145,1.0,8.0,50,0.00,,,0.00,,2013-04-03 16:12:00,
2013-04-03 11:24:00,43.0,26.0,30.39,SE,145,1.0,8.0,50,0.00,,,0.00,,2013-04-03 16:24:00,
2013-04-03 11:32:00,43.0,25.0,30.40,East,94,5.0,9.0,48,0.00,,,0.00,,2013-04-03 16:32:00,
2013-04-03 11:43:00,43.0,25.0,30.40,East,94,5.0,9.0,48,0.00,,,0.00,,2013-04-03 16:43:00,
2013-04-03 11:53:00,44.0,27.0,30.40,SE,142,2.0,8.0,50,0.00,,,0.00,,2013-04-03 16:53:00,
2013-04-03 12:03:00,43.0,26.0,30.39,ESE,104,2.0,10.0,50,0.00,,,0.00,,2013-04-03 17:03:00,
2013-04-03 12:13:00,43.0,26.0,30.39,ESE,104,2.0,10.0,50,0.00,,,0.00,,2013-04-03 17:13:00,
2013-04-03 12:23:00,44.0,26.0,30.39,East,92,3.0,7.0,48,0.00,,,0.00,,2013-04-03 17:23:00,
2013-04-03 12:33:00,44.0,25.0,30.38,ESE,106,3.0,4.0,47,0.00,,,0.00,,2013-04-03 17:33:00,
2013-04-03 12:45:00,44.0,25.0,30.38,ESE,106,3.0,4.0,47,0.00,,,0.00,,2013-04-03 17:45:00,
2013-04-03 12:54:00,44.0,25.0,30.37,SSE,165,4.0,6.0,46,0.00,,,0.00,,2013-04-03 17:54:00,
2013-04-03 13:02:00,44.0,25.0,30.38,SE,134,2.0,6.0,47,0.00,,,0.00,,2013-04-03 18:02:00,
2013-04-03 13:12:00,44.0,25.0,30.38,SE,134,2.0,6.0,47,0.00,,,0.00,,2013-04-03 18:12:00,
2013-04-03 13:22:00,44.0,25.0,30.37,South,177,4.0,6.0,47,0.00,,,0.00,,2013-04-03 18:22:00,
2013-04-03 13:33:00,44.0,25.0,30.37,South,177,4.0,6.0,47,0.00,,,0.00,,2013-04-03 18:33:00,
2013-04-03 13:42:00,44.0,25.0,30.37,South,177,4.0,6.0,47,0.00,,,0.00,,2013-04-03 18:42:00,
2013-04-03 13:52:00,44.0,25.0,30.37,South,177,4.0,6.0,47,0.00,,,0.00,,2013-04-03 18:52:00,
2013-04-03 14:02:00,43.0,29.0,30.36,SSW,212,1.0,12.0,57,0.00,,,0.00,,2013-04-03 19:02:00,
2013-04-03 14:12:00,43.0,29.0,30.36,SSW,212,1.0,12.0,57,0.00,,,0.00,,2013-04-03 19:12:00,
2013-04-03 14:22:00,43.0,31.0,30.36,West,268,2.0,6.0,62,0.00,,,0.00,,2013-04-03 19:22:00,
2013-04-03 14:32:00,43.0,32.0,30.35,WNW,302,2.0,6.0,64,0.00,,,0.00,,2013-04-03 19:32:00,
2013-04-03 14:42:00,43.0,32.0,30.35,WNW,302,2.0,6.0,64,0.00,,,0.00,,2013-04-03 19:42:00,
2013-04-03 14:52:00,43.0,32.0,30.35,WNW,302,2.0,6.0,64,0.00,,,0.00,,2013-04-03 19:52:00,
2013-04-03 15:02:00,44.0,30.0,30.35,South,172,5.0,12.0,57,0.00,,,0.00,,2013-04-03 20:02:00,
2013-04-03 15:12:00,44.0,30.0,30.35,South,172,5.0,12.0,57,0.00,,,0.00,,2013-04-03 20:12:00,
2013-04-03 15:23:00,45.0,30.0,30.34,SE,134,6.0,11.0,56,0.00,,,0.00,,2013-04-03 20:23:00,
2013-04-03 15:32:00,45.0,32.0,30.33,ESE,121,3.0,10.0,59,0.00,,,0.00,,2013-04-03 20:32:00,
2013-04-03 15:42:00,45.0,32.0,30.33,ESE,121,3.0,10.0,59,0.00,,,0.00,,2013-04-03 20:42:00,
2013-04-03 15:53:00,45.0,32.0,30.33,ESE,121,3.0,10.0,59,0.00,,,0.00,,2013-04-03 20:53:00,
2013-04-03 16:02:00,45.0,32.0,30.33,ESE,121,3.0,10.0,59,0.00,,,0.00,,2013-04-03 21:02:00,
2013-04-03 16:12:00,45.0,32.0,30.33,ESE,121,3.0,10.0,59,0.00,,,0.00,,2013-04-03 21:12:00,
2013-04-03 16:22:00,45.0,32.0,30.31,SE,136,4.0,10.0,59,0.00,,,0.00,,2013-04-03 21:22:00,
2013-04-03 16:33:00,45.0,31.0,30.31,ESE,110,4.0,9.0,58,0.00,,,0.00,,2013-04-03 21:33:00,
2013-04-03 16:42:00,45.0,31.0,30.31,ESE,110,4.0,9.0,58,0.00,,,0.00,,2013-04-03 21:42:00,
2013-04-03 16:52:00,45.0,31.0,30.31,SSE,149,4.0,7.0,58,0.00,,,0.00,,2013-04-03 21:52:00,
2013-04-03 17:02:00,45.0,31.0,30.31,SSE,149,4.0,7.0,58,0.00,,,0.00,,2013-04-03 22:02:00,
2013-04-03 17:12:00,45.0,31.0,30.31,SSE,149,4.0,7.0,58,0.00,,,0.00,,2013-04-03 22:12:00,
2013-04-03 17:22:00,45.0,30.0,30.29,ENE,77,2.0,8.0,56,0.00,,,0.00,,2013-04-03 22:22:00,
2013-04-03 17:32:00,45.0,30.0,30.29,ENE,77,2.0,8.0,56,0.00,,,0.00,,2013-04-03 22:32:00,
2013-04-03 17:42:00,45.0,30.0,30.29,ENE,77,2.0,8.0,56,0.00,,,0.00,,2013-04-03 22:42:00,
2013-04-03 17:52:00,44.0,32.0,30.30,SSE,166,1.0,8.0,63,0.00,,,0.00,,2013-04-03 22:52:00,
2013-04-03 18:02:00,44.0,33.0,30.29,ESE,106,0.0,7.0,66,0.00,,,0.00,,2013-04-03 23:02:00,
2013-04-03 18:12:00,44.0,33.0,30.29,ESE,106,0.0,7.0,66,0.00,,,0.00,,2013-04-03 23:12:00,
2013-04-03 18:22:00,43.0,33.0,30.29,East,83,1.0,7.0,67,0.00,,,0.00,,2013-04-03 23:22:00,
2013-04-03 18:32:00,43.0,32.0,30.29,NE,52,0.0,6.0,66,0.00,,,0.00,,2013-04-03 23:32:00,
2013-04-03 18:42:00,43.0,32.0,30.29,NE,52,0.0,6.0,66,0.00,,,0.00,,2013-04-03 23:42:00,
2013-04-03 18:54:00,44.0,32.0,30.29,SSE,153,1.0,5.0,62,0.00,,,0.00,,2013-04-03 23:54:00,
2013-04-03 19:02:00,44.0,32.0,30.29,SSE,153,1.0,5.0,62,0.00,,,0.00,,2013-04-04 00:02:00,
2013-04-03 19:12:00,44.0,32.0,30.29,SSE,153,1.0,5.0,62,0.00,,,0.00,,2013-04-04 00:12:00,
2013-04-03 19:22:00,44.0,31.0,30.30,ENE,70,2.0,5.0,61,0.00,,,0.00,,2013-04-04 00:22:00,
2013-04-03 19:32:00,44.0,30.0,30.30,SE,128,0.0,7.0,58,0.00,,,0.00,,2013-04-04 00:32:00,
2013-04-03 19:43:00,44.0,30.0,30.30,SE,128,0.0,7.0,58,0.00,,,0.00,,2013-04-04 00:43:00,
2013-04-03 19:52:00,44.0,30.0,30.30,SE,134,1.0,5.0,58,0.00,,,0.00,,2013-04-04 00:52:00,
2013-04-03 20:02:00,44.0,30.0,30.30,SE,146,0.0,4.0,58,0.00,,,0.00,,2013-04-04 01:02:00,
2013-04-03 20:12:00,44.0,30.0,30.30,SE,146,0.0,4.0,58,0.00,,,0.00,,2013-04-04 01:12:00,
2013-04-03 20:22:00,43.0,29.0,30.30,SE,124,1.0,4.0,57,0.00,,,0.00,,2013-04-04 01:22:00,
2013-04-03 20:32:00,43.0,29.0,30.30,SE,145,0.0,3.0,58,0.00,,,0.00,,2013-04-04 01:32:00,
2013-04-03 20:43:00,43.0,29.0,30.30,SE,145,0.0,3.0,58,0.00,,,0.00,,2013-04-04 01:43:00,
2013-04-03 20:52:00,43.0,29.0,30.30,SE,141,0.0,3.0,58,0.00,,,0.00,,2013-04-04 01:52:00,
2013-04-03 21:02:00,43.0,29.0,30.30,South,188,0.0,1.0,58,0.00,,,0.00,,2013-04-04 02:02:00,
2013-04-03 21:12:00,43.0,29.0,30.30,South,188,0.0,1.0,58,0.00,,,0.00,,2013-04-04 02:12:00,
2013-04-03 21:22:00,43.0,30.0,30.30,South,170,0.0,2.0,59,0.00,,,0.00,,2013-04-04 02:22:00,
2013-04-03 21:32:00,43.0,30.0,30.30,SE,139,3.0,4.0,59,0.00,,,0.00,,2013-04-04 02:32:00,
2013-04-03 21:42:00,43.0,30.0,30.30,SE,139,3.0,4.0,59,0.00,,,0.00,,2013-04-04 02:42:00,
2013-04-03 21:52:00,43.0,30.0,30.30,SE,139,3.0,4.0,59,0.00,,,0.00,,2013-04-04 02:52:00,
2013-04-03 22:02:00,43.0,30.0,30.31,SSE,165,0.0,2.0,59,0.00,,,0.00,,2013-04-04 03:02:00,
2013-04-03 22:12:00,43.0,30.0,30.31,SSE,165,0.0,2.0,59,0.00,,,0.00,,2013-04-04 03:12:00,
2013-04-03 22:22:00,43.0,29.0,30.31,SW,224,0.0,1.0,58,0.00,,,0.00,,2013-04-04 03:22:00,
2013-04-03 22:33:00,44.0,30.0,30.32,SW,218,0.0,1.0,58,0.00,,,0.00,,2013-04-04 03:33:00,
2013-04-03 22:43:00,44.0,30.0,30.32,SW,218,0.0,1.0,58,0.00,,,0.00,,2013-04-04 03:43:00,
2013-04-03 22:53:00,44.0,30.0,30.32,SW,218,0.0,1.0,58,0.00,,,0.00,,2013-04-04 03:53:00,
2013-04-03 23:02:00,44.0,30.0,30.32,SW,218,0.0,1.0,58,0.00,,,0.00,,2013-04-04 04:02:00,
2013-04-03 23:12:00,44.0,30.0,30.32,SW,218,0.0,1.0,58,0.00,,,0.00,,2013-04-04 04:12:00,
2013-04-03 23:23:00,43.0,30.0,30.31,WSW,239,0.0,1.0,61,0.00,,,0.00,,2013-04-04 04:23:00,
2013-04-03 23:34:00,43.0,31.0,30.31,West,262,1.0,1.0,63,0.00,,,0.00,,2013-04-04 04:34:00,
2013-04-03 23:43:00,43.0,31.0,30.31,West,262,1.0,1.0,63,0.00,,,0.00,,2013-04-04 04:43:00,
2013-04-03 23:53:00,43.0,31.0,30.31,West,262,1.0,1.0,63,0.00,,,0.00,,2013-04-04 04:53:00,